Location: Bacharowice
(49.9333°N, 19.5833°E)
Time: 23:50:27
(UTC+00:00)

ERBS - Pass Details

Date: 11 May 2021
Orbit: 399 x 417 km, 57.0° (Epoch: 21 June)

Event Time Altitude Azimuth Distance (km) Brightness Sun altitude
Rises 21:40:19 0° 303° (WNW) 2,356 6.8 -20.8°
Reaches altitude 10° 21:42:24 10° 303° (WNW) 1,494 5.7 -20.8°
Enters shadow 21:45:20 67° 305° (NW) 456 2.5 -21.0°
